Location: Alpha Ridge Park
(39.3209°N, 76.9128°W)
Time: 15:25:25
(UTC-04:00)

Vanguard 1 - Visible Passes

Search period start: 15 October 2019 00:00
Search period end: 25 October 2019 00:00
Orbit: 653 x 3830 km, 34.3° (Epoch: 14 October)

Date Brightness Start Highest point End Pass type
(mag) Time Alt. Az. Time Alt. Az. Time Alt. Az.
15 Oct 13.4 02:28:29 34° SE 02:28:29 34° SE 02:38:37 10° SE visible
15 Oct 13.3 04:41:15 31° SW 04:41:15 31° SW 04:58:12 10° S visible
15 Oct 12.0 19:18:49 10° SSW 19:26:05 32° SE 19:35:05 16° E visible
15 Oct 11.8 21:36:31 10° WSW 21:47:08 67° SSE 21:47:47 67° SSE visible
15 Oct 13.1 23:56:51 10° W 00:36:09 - ESE 00:00:28 25° W visible
16 Oct 13.4 02:48:55 33° SSE 02:48:55 33° SSE 02:59:13 10° SE visible
16 Oct 13.5 05:01:41 24° SW 05:01:41 24° SW 05:16:46 10° S visible
16 Oct 11.8 19:38:53 10° SSW 19:46:35 41° SE 19:54:42 22° E visible
16 Oct 11.8 21:57:20 10° WSW 22:07:23 70° SSW 22:07:23 70° SSW visible
17 Oct 13.3 00:17:57 10° W 00:56:31 - ESE 00:20:04 18° W visible
17 Oct 13.5 03:09:18 30° SSE 03:09:18 30° SSE 03:19:27 10° SSE visible
17 Oct 13.7 05:22:03 17° SW 05:22:13 17° SW 05:34:00 10° SSW visible
17 Oct 11.6 19:59:15 10° SW 20:07:15 50° SSE 20:14:16 29° E visible
17 Oct 11.9 22:18:14 10° WSW 22:26:57 63° SW 22:26:57 63° SW visible
18 Oct 13.5 00:39:05 10° W 01:16:51 11° SE 01:17:15 10° SE visible
18 Oct 13.5 03:29:36 27° S 03:29:36 27° S 03:39:16 10° SSE visible
18 Oct 13.9 05:42:21 11° SW 05:42:55 11° SW 05:46:30 10° SW visible
18 Oct 11.5 20:19:48 10° SW 20:28:07 58° SSE 20:33:49 37° E visible
18 Oct 12.2 22:39:11 10° W 22:46:30 51° WSW 22:46:30 51° WSW visible
19 Oct 13.8 01:37:05 12° SE 01:37:05 12° SE 01:38:11 10° SE visible
19 Oct 13.6 03:49:49 23° S 03:49:49 23° S 03:58:30 10° S visible
19 Oct 11.4 20:40:29 10° WSW 20:49:06 65° SSE 20:53:21 47° ESE visible
19 Oct 12.4 23:00:11 10° W 23:06:02 40° WSW 23:06:02 40° WSW visible
20 Oct 13.9 01:57:13 13° SE 01:57:13 13° SE 01:58:47 10° SE visible
20 Oct 13.8 04:09:58 18° SSW 04:09:58 18° SSW 04:16:56 10° S visible
20 Oct 11.5 18:43:10 10° SSW 18:49:21 36° SE 18:59:43 10° E visible
20 Oct 11.5 21:01:16 10° WSW 21:10:12 69° S 21:12:53 58° ESE visible
20 Oct 12.7 23:21:12 10° W 23:25:34 30° W 23:25:34 30° W visible
21 Oct 14.1 02:17:17 13° SSE 02:17:17 13° SSE 02:19:01 10° SSE visible
21 Oct 13.9 04:30:00 13° SSW 04:30:00 13° SSW 04:33:52 10° SSW visible
21 Oct 11.3 19:03:31 10° SW 19:09:59 45° SSE 19:19:43 14° E visible
21 Oct 11.5 21:22:07 10° W 21:31:22 71° S 21:32:25 68° SSE visible
21 Oct 13.0 23:42:15 10° W 23:45:06 22° W 23:45:06 22° W visible
22 Oct 14.1 02:37:14 13° SSE 02:37:14 13° SSE 02:38:46 10° SSE visible
22 Oct 11.2 19:24:02 10° SW 19:30:47 54° SSE 19:39:15 20° E visible
22 Oct 11.6 21:43:01 10° W 21:51:56 69° SSW 21:51:56 69° SSW visible
23 Oct 13.3 00:03:23 10° W 00:04:38 15° W 00:04:38 15° W visible
23 Oct 14.1 02:57:07 11° S 02:57:07 11° S 02:57:54 10° S visible
23 Oct 11.1 19:44:42 10° WSW 19:51:42 61° SSE 19:58:47 27° E visible
23 Oct 11.8 22:03:56 10° W 22:11:28 58° SW 22:11:28 58° SW visible
24 Oct 11.1 20:05:28 10° WSW 20:12:43 65° S 20:18:20 35° ESE visible
24 Oct 12.1 22:24:54 10° W 22:31:01 45° WSW 22:31:01 45° WSW visible
